• In France
  • List of Countries
  • For 7 days
  • Water Temperature
  • Satellite Maps
  • Weather Map
  • Weather Widgets
  • user-avatar
    Login

    Hourly Weather Aberdeen

    Today, 21 November, Tuesday

    Time Temperature Precipitation Wind Pressure Humidity
    00:00 +5°C° 0 mm 3 mps 747 mmHg 98%
    01:00 +5°C° 0.2 mm 3 mps 747 mmHg 98%
    02:00 +5°C° 0.2 mm 3 mps 747 mmHg 98%
    03:00 +5°C° 0.2 mm 3 mps 746 mmHg 98%
    04:00 +5°C° 0.3 mm 3 mps 746 mmHg 98%
    05:00 +7°C° 0.3 mm 3 mps 745 mmHg 98%
    06:00 +7°C° 0.3 mm 2 mps 745 mmHg 98%
    07:00 +7°C° 0.2 mm 2 mps 745 mmHg 98%
    08:00 +7°C° 0.2 mm 2 mps 744 mmHg 98%
    09:00 +7°C° 0.2 mm 2 mps 744 mmHg 98%
    10:00 +7°C° 0.4 mm 2 mps 743 mmHg 97%
    11:00 +8°C° 0.4 mm 2 mps 743 mmHg 97%
    12:00 +8°C° 0.4 mm 2 mps 742 mmHg 97%
    13:00 +8°C° 0.5 mm 2 mps 741 mmHg 97%
    14:00 +8°C° 0.5 mm 2 mps 740 mmHg 97%
    15:00 +8°C° 0.5 mm 2 mps 740 mmHg 97%
    16:00 +8°C° 1.2 mm 3 mps 738 mmHg 97%
    17:00 +8°C° 1.2 mm 3 mps 737 mmHg 97%
    18:00 +8°C° 1.2 mm 4 mps 736 mmHg 97%
    19:00 +8°C° 0.2 mm 5 mps 736 mmHg 95%
    20:00 +9°C° 0.2 mm 6 mps 735 mmHg 94%
    21:00 +10°C° 0.2 mm 7 mps 734 mmHg 93%
    22:00 +10°C° 0.1 mm 7 mps 734 mmHg 92%
    23:00 +10°C° 0.1 mm 8 mps 734 mmHg 91%

    Tomorrow, 22 November, Wednesday

    Time Temperature Precipitation Wind Pressure Humidity
    00:00 +10°C° 0.1 mm 8 mps 734 mmHg 90%
    01:00 +9°C° 0 mm 7 mps 734 mmHg 90%
    02:00 +8°C° 0 mm 7 mps 734 mmHg 90%
    03:00 +7°C° 0 mm 6 mps 734 mmHg 90%
    04:00 +7°C° 0 mm 5 mps 734 mmHg 90%
    05:00 +7°C° 0 mm 5 mps 734 mmHg 91%
    06:00 +7°C° 0 mm 4 mps 734 mmHg 91%
    07:00 +7°C° 0 mm 4 mps 734 mmHg 92%
    08:00 +8°C° 0 mm 3 mps 734 mmHg 93%
    09:00 +8°C° 0 mm 3 mps 734 mmHg 93%
    10:00 +8°C° 1.1 mm 3 mps 733 mmHg 94%
    11:00 +8°C° 1.1 mm 3 mps 732 mmHg 95%
    12:00 +8°C° 1.1 mm 3 mps 731 mmHg 96%
    13:00 +6°C° 3.8 mm 4 mps 730 mmHg 96%
    14:00 +6°C° 3.8 mm 4 mps 729 mmHg 97%
    15:00 +6°C° 3.8 mm 4 mps 727 mmHg 97%
    16:00 +6°C° 2.2 mm 5 mps 726 mmHg 96%
    17:00 +6°C° 2.2 mm 5 mps 726 mmHg 95%
    18:00 +4°C° 2.2 mm 6 mps 725 mmHg 94%
    19:00 +5°C° 1.5 mm 5 mps 725 mmHg 93%
    20:00 +5°C° 1.5 mm 5 mps 724 mmHg 92%
    21:00 +5°C° 1.5 mm 5 mps 724 mmHg 92%
    22:00 +5°C° 0.8 mm 5 mps 724 mmHg 92%
    23:00 +5°C° 0.8 mm 4 mps 724 mmHg 93%

    Day after tomorrow, 23 November, Thursday

    Time Temperature Precipitation Wind Pressure Humidity
    00:00 +5°C° 0.8 mm 4 mps 725 mmHg 93%
    01:00 +5°C° 0.5 mm 3 mps 725 mmHg 94%
    02:00 +5°C° 0.5 mm 3 mps 725 mmHg 94%
    03:00 +6°C° 0.5 mm 2 mps 725 mmHg 95%
    04:00 +6°C° 0.2 mm 2 mps 725 mmHg 95%
    05:00 +6°C° 0.2 mm 2 mps 725 mmHg 95%
    06:00 +7°C° 0.2 mm 1 mps 725 mmHg 95%
    07:00 +5°C° 0.2 mm 3 mps 726 mmHg 91%
    08:00 +5°C° 0.2 mm 5 mps 727 mmHg 88%
    09:00 +4°C° 0.2 mm 8 mps 728 mmHg 84%
    10:00 +4°C° 0 mm 8 mps 729 mmHg 79%
    11:00 +3°C° 0 mm 9 mps 730 mmHg 74%
    12:00 +3°C° 0 mm 9 mps 731 mmHg 69%
    13:00 +2°C° 0 mm 9 mps 732 mmHg 70%
    14:00 +2°C° 0 mm 9 mps 732 mmHg 72%
    15:00 +2°C° 0 mm 8 mps 733 mmHg 74%
    16:00 +2°C° 0 mm 8 mps 732 mmHg 75%
    17:00 +2°C° 0 mm 8 mps 732 mmHg 76%
    18:00 +2°C° 0 mm 8 mps 731 mmHg 77%
    19:00 +2°C° 0.1 mm 8 mps 731 mmHg 77%
    20:00 +2°C° 0.1 mm 9 mps 730 mmHg 78%
    21:00 +2°C° 0.1 mm 9 mps 729 mmHg 79%
    22:00 +2°C° 0.2 mm 10 mps 729 mmHg 79%
    23:00 +3°C° 0.2 mm 10 mps 729 mmHg 79%

    24 November, Friday

    Time Temperature Precipitation Wind Pressure Humidity
    00:00 +3°C° 0.2 mm 11 mps 729 mmHg 79%
    01:00 +3°C° 0.1 mm 11 mps 730 mmHg 80%
    02:00 +3°C° 0.1 mm 11 mps 730 mmHg 81%
    03:00 +3°C° 0.1 mm 11 mps 731 mmHg 83%
    04:00 +2°C° 0.1 mm 10 mps 733 mmHg 82%
    05:00 +2°C° 0.1 mm 10 mps 734 mmHg 81%
    06:00 +1°C° 0.1 mm 9 mps 736 mmHg 81%
    07:00 +1°C° 0.1 mm 8 mps 737 mmHg 81%
    08:00 +1°C° 0.1 mm 8 mps 739 mmHg 80%
    09:00 0°C° 0.1 mm 7 mps 741 mmHg 80%
    10:00 +2°C° 0 mm 6 mps 741 mmHg 77%
    11:00 +2°C° 0 mm 6 mps 742 mmHg 74%
    12:00 +3°C° 0 mm 5 mps 743 mmHg 71%
    13:00 +2°C° 0 mm 5 mps 744 mmHg 74%
    14:00 +3°C° 0 mm 4 mps 744 mmHg 76%
    15:00 +1°C° 0 mm 4 mps 745 mmHg 78%
    16:00 0°C° 0 mm 4 mps 745 mmHg 80%
    17:00 +1°C° 0 mm 3 mps 746 mmHg 83%
    18:00 0°C° 0 mm 3 mps 746 mmHg 85%
    19:00 0°C° 0 mm 3 mps 746 mmHg 85%
    20:00 0°C° 0 mm 3 mps 747 mmHg 86%
    21:00 0°C° 0 mm 3 mps 747 mmHg 86%
    22:00 +1°C° 0 mm 2 mps 747 mmHg 85%
    23:00 +1°C° 0 mm 2 mps 747 mmHg 85%

    25 November, Saturday

    Time Temperature Precipitation Wind Pressure Humidity
    00:00 +1°C° 0 mm 2 mps 747 mmHg 84%
    01:00 +1°C° 0 mm 2 mps 746 mmHg 84%
    02:00 +2°C° 0 mm 1 mps 746 mmHg 83%
    03:00 +2°C° 0 mm 1 mps 746 mmHg 83%
    04:00 +2°C° 0 mm 1 mps 746 mmHg 82%
    05:00 +1°C° 0 mm 2 mps 746 mmHg 82%
    06:00 +1°C° 0 mm 2 mps 745 mmHg 81%
    07:00 +1°C° 0 mm 2 mps 745 mmHg 80%
    08:00 0°C° 0 mm 3 mps 745 mmHg 80%
    09:00 -1°C° 0 mm 4 mps 745 mmHg 79%
    10:00 0°C° 0 mm 4 mps 745 mmHg 76%
    11:00 0°C° 0 mm 5 mps 745 mmHg 73%
    12:00 +1°C° 0 mm 5 mps 745 mmHg 70%
    13:00 +1°C° 0 mm 6 mps 745 mmHg 70%
    14:00 -1°C° 0 mm 6 mps 745 mmHg 71%
    15:00 -1°C° 0 mm 6 mps 745 mmHg 72%
    16:00 -2°C° 0 mm 6 mps 745 mmHg 73%
    17:00 -2°C° 0 mm 7 mps 745 mmHg 74%
    18:00 -2°C° 0 mm 7 mps 746 mmHg 75%
    19:00 -2°C° 0 mm 7 mps 746 mmHg 75%
    20:00 -2°C° 0 mm 7 mps 746 mmHg 75%
    21:00 -1°C° 0 mm 7 mps 747 mmHg 75%
    22:00 -1°C° 0 mm 8 mps 747 mmHg 75%
    23:00 -1°C° 0 mm 8 mps 748 mmHg 76%

    26 November, Sunday

    Time Temperature Precipitation Wind Pressure Humidity
    00:00 -1°C° 0 mm 8 mps 748 mmHg 76%
    01:00 -1°C° 0 mm 8 mps 748 mmHg 76%
    02:00 -1°C° 0 mm 8 mps 749 mmHg 77%
    03:00 -1°C° 0 mm 9 mps 749 mmHg 77%
    04:00 -1°C° 0 mm 9 mps 749 mmHg 76%
    05:00 -1°C° 0 mm 9 mps 750 mmHg 75%
    06:00 -1°C° 0 mm 9 mps 750 mmHg 75%
    07:00 -1°C° 0 mm 9 mps 750 mmHg 74%
    08:00 -1°C° 0 mm 8 mps 751 mmHg 74%
    09:00 -1°C° 0 mm 8 mps 751 mmHg 74%
    10:00 0°C° 0 mm 9 mps 752 mmHg 71%
    11:00 0°C° 0 mm 9 mps 752 mmHg 68%
    12:00 +1°C° 0 mm 9 mps 753 mmHg 65%
    13:00 +1°C° 0 mm 9 mps 753 mmHg 68%
    14:00 +1°C° 0 mm 8 mps 753 mmHg 70%
    15:00 0°C° 0 mm 8 mps 753 mmHg 72%
    16:00 0°C° 0 mm 7 mps 753 mmHg 76%
    17:00 -1°C° 0 mm 6 mps 753 mmHg 80%
    18:00 -1°C° 0 mm 6 mps 754 mmHg 85%
    19:00 -1°C° 0 mm 6 mps 754 mmHg 87%
    20:00 0°C° 0 mm 5 mps 754 mmHg 89%
    21:00 +1°C° 0 mm 5 mps 754 mmHg 91%
    22:00 +1°C° 0.1 mm 5 mps 754 mmHg 92%
    23:00 +1°C° 0.1 mm 5 mps 753 mmHg 93%
    Show more